DW8500 Weather Reports


Display with metric or nautical units.
time (UTC)temp
F
wind
direction
speed
MPH
gust
MPH
rain 1hr
in
rain 24hr
in
rain mn
in
humidity
%
barometer
mb
20260505153310 76 307 2.0 10.0 0.00 0.00 0.00 31 1008.6
20260505152749 75 120 3.0 10.0 0.00 0.00 0.00 31 1008.7
20260505152254 76 283 4.0 11.0 0.00 0.00 0.00 30 1008.7
20260505151815 76 152 5.0 11.0 0.00 0.00 0.00 30 1008.8
20260505151251 76 279 5.0 13.0 0.00 0.00 0.00 31 1008.8
20260505150752 75 83 5.0 13.0 0.00 0.00 0.00 32 1008.7
20260505150247 74 238 4.0 12.0 0.00 0.00 0.00 33 1008.7
20260505140251 69 123 1.0 6.0 0.00 0.00 0.00 39 1009.0
20260505130248 63 231 1.0 5.0 0.00 0.00 0.00 46 1009.1
20260505124755 62 158 1.0 3.0 0.00 0.00 0.00 48 1009.1
20260505124252 61 197 1.0 3.0 0.00 0.00 0.00 49 1009.2
20260505123814 60 260 0.0 4.0 0.00 0.00 0.00 50 1009.2
20260505123250 60 238 1.0 4.0 0.00 0.00 0.00 50 1009.3
20260505123023 59 202 1.0 4.0 0.00 0.00 0.00 50 1009.1
20260505122810 59 174 0.0 2.0 0.00 0.00 0.00 51 1009.2
20260505122309 59 173 0.0 4.0 0.00 0.00 0.00 52 1009.2
20260505121747 58 244 0.0 4.0 0.00 0.00 0.00 53 1009.1
20260505121245 57 224 1.0 3.0 0.00 0.00 0.00 52 1009.3
20260505120746 57 272 1.0 3.0 0.00 0.00 0.00 53 1009.4
20260505120301 57 231 1.0 2.0 0.00 0.00 0.00 53 1009.4
20260505120003 56 248 0.0 3.0 0.00 0.00 0.00 54 1009.2
20260505115759 56 192 1.0 3.0 0.00 0.00 0.00 54 1009.5
20260505115256 56 189 1.0 3.0 0.00 0.00 0.00 54 1009.3
20260505114747 55 221 0.0 2.0 0.00 0.00 0.00 56 1009.1
20260505114505 54 124 0.0 3.0 0.00 0.00 0.00 55 1009.2
20260505114304 54 259 1.0 3.0 0.00 0.00 0.00 56 1009.3
20260505113803 54 210 1.0 3.0 0.00 0.00 0.00 56 1009.4
20260505113259 53 237 0.0 2.0 0.00 0.00 0.00 57 1009.5
20260505112759 53 233 0.0 3.0 0.00 0.00 0.00 57 1009.2
20260505112256 52 253 0.0 1.0 0.00 0.00 0.00 58 1009.1
20260505111753 52 164 0.0 1.0 0.00 0.00 0.00 60 1009.3
20260505111251 51 235 0.0 1.0 0.00 0.00 0.00 61 1009.1
20260505110749 51 233 0.0 1.0 0.00 0.00 0.00 61 1009.1
20260505110307 50 233 0.0 0.0 0.00 0.00 0.00 61 1009.1
20260505101807 49 233 0.0 0.0 0.00 0.00 0.00 60 1009.1
20260505101518 49 233 0.0 0.0 0.00 0.00 0.00 60 1008.9
20260505101305 49 233 0.0 0.0 0.00 0.00 0.00 60 1009.1
20260505100805 49 233 0.0 1.0 0.00 0.00 0.00 61 1009.0
20260505100358 49 233 0.0 1.0 0.00 0.00 0.00 60 1009.1
20260505095750 49 233 0.0 1.0 0.00 0.00 0.00 60 1009.0
20260505095245 49 233 0.0 0.0 0.00 0.00 0.00 60 1009.1
20260505094825 49 233 0.0 1.0 0.00 0.00 0.00 60 1009.0
20260505094259 49 233 0.0 1.0 0.00 0.00 0.00 60 1009.0
20260505093820 49 233 0.0 1.0 0.00 0.00 0.00 60 1009.1
20260505093256 49 233 0.0 1.0 0.00 0.00 0.00 60 1009.3
20260505092756 49 231 0.0 1.0 0.00 0.00 0.00 60 1009.2
20260505092255 49 231 0.0 1.0 0.00 0.00 0.00 60 1009.2
20260505091815 49 231 0.0 0.0 0.00 0.00 0.00 60 1009.2
20260505091249 49 231 0.0 1.0 0.00 0.00 0.00 60 1009.2
20260505090750 49 231 0.0 1.0 0.00 0.00 0.00 60 1009.2
20260505090249 49 231 0.0 1.0 0.00 0.00 0.00 61 1009.2
20260505085751 48 231 0.0 1.0 0.00 0.00 0.00 61 1009.2
20260505085248 48 228 0.0 1.0 0.00 0.00 0.00 61 1009.3
20260505084749 48 228 0.0 1.0 0.00 0.00 0.00 61 1009.3
20260505084245 48 228 0.0 1.0 0.00 0.00 0.00 61 1009.2
20260505083306 48 228 0.0 0.0 0.00 0.00 0.00 60 1009.2
20260505083027 48 228 0.0 0.0 0.00 0.00 0.00 60 1009.1
20260505082826 48 228 0.0 0.0 0.00 0.00 0.00 60 1009.4
20260505081748 49 228 0.0 0.0 0.00 0.00 0.00 60 1009.4
20260505081502 48 228 0.0 0.0 0.00 0.00 0.00 60 1009.2
20260505081301 49 228 0.0 0.0 0.00 0.00 0.00 59 1009.5
20260505080801 49 228 0.0 0.0 0.00 0.00 0.00 59 1009.4
20260505080253 50 228 0.0 0.0 0.00 0.00 0.00 58 1009.5
20260505075754 50 228 0.0 0.0 0.00 0.00 0.00 57 1009.5
20260505075252 50 228 0.0 0.0 0.00 0.00 0.00 56 1009.4
20260505074812 51 228 0.0 0.0 0.00 0.00 0.00 56 1009.3
20260505074248 51 228 0.0 0.0 0.00 0.00 0.00 56 1009.4
20260505073808 52 228 0.0 0.0 0.00 0.00 0.00 55 1009.6
20260505073246 52 228 0.0 0.0 0.00 0.00 0.00 55 1009.6
20260505072744 52 228 0.0 0.0 0.00 0.00 0.00 54 1009.5
20260505072300 52 228 0.0 0.0 0.00 0.00 0.00 54 1009.6
20260505071800 52 228 0.0 0.0 0.00 0.00 0.00 54 1009.6
20260505071516 51 228 0.0 0.0 0.00 0.00 0.00 54 1009.4
20260505071315 52 228 0.0 0.0 0.00 0.00 0.00 54 1009.6
20260505070755 52 228 0.0 1.0 0.00 0.00 0.00 54 1009.5
20260505070253 53 228 0.0 1.0 0.00 0.00 0.00 53 1009.6
20260505065753 53 228 0.0 1.0 0.00 0.00 0.00 53 1009.6
20260505065250 53 222 0.0 1.0 0.00 0.00 0.00 53 1009.6
20260505064752 53 196 0.0 1.0 0.00 0.00 0.00 52 1009.6
20260505064249 53 158 0.0 1.0 0.00 0.00 0.00 52 1009.6
20260505063750 53 190 0.0 1.0 0.00 0.00 0.00 51 1009.6
20260505063247 53 218 0.0 3.0 0.00 0.00 0.00 51 1009.6
20260505063024 53 218 0.0 3.0 0.00 0.00 0.00 52 1009.6
20260505062822 53 218 0.0 3.0 0.00 0.00 0.00 52 1009.7
20260505062256 53 158 0.0 2.0 0.00 0.00 0.00 53 1009.8
20260505061756 52 295 1.0 2.0 0.00 0.00 0.00 53 1009.8
20260505061252 52 184 0.0 1.0 0.00 0.00 0.00 54 1009.8
20260505060755 51 231 0.0 1.0 0.00 0.00 0.00 54 1009.8
20260505060253 52 231 0.0 0.0 0.00 0.00 0.00 54 1009.9
20260505060014 51 230 0.0 0.0 0.00 0.00 0.00 53 1009.7
20260505055813 52 236 0.0 0.0 0.00 0.00 0.00 53 1009.8
20260505055251 52 199 0.0 0.0 0.00 0.00 0.00 52 1009.7
20260505054751 52 199 0.0 0.0 0.00 0.00 0.00 53 1009.7
20260505054250 52 199 0.0 0.0 0.00 0.00 0.00 53 1009.7
20260505053745 51 230 0.0 0.0 0.00 0.00 0.00 54 1009.8
20260505053303 51 210 0.0 1.0 0.00 0.00 0.00 54 1009.8
20260505053035 51 211 0.0 1.0 0.00 0.00 0.00 54 1009.9
20260505052823 52 137 0.0 1.0 0.00 0.00 0.00 53 1009.9
20260505052252 52 137 0.0 1.0 0.00 0.00 0.00 52 1009.9
20260505051753 53 137 0.0 1.0 0.00 0.00 0.00 51 1009.9
20260505051251 53 136 0.0 1.0 0.00 0.00 0.00 50 1009.9
20260505050811 54 136 0.0 1.0 0.00 0.00 0.00 49 1009.9
20260505050247 54 129 0.0 1.0 0.00 0.00 0.00 49 1009.8
20260505041755 55 43 0.0 2.0 0.00 0.00 0.00 46 1009.6
20260505041254 56 177 0.0 1.0 0.00 0.00 0.00 46 1009.6
20260505040754 56 187 0.0 0.0 0.00 0.00 0.00 45 1009.6
20260505040253 56 187 0.0 1.0 0.00 0.00 0.00 45 1009.6
20260505035754 57 187 0.0 2.0 0.00 0.00 0.00 44 1009.6
20260505035247 57 224 1.0 2.0 0.00 0.00 0.00 44 1009.6
20260505034747 57 161 0.0 3.0 0.00 0.00 0.00 43 1009.6
20260505034505 57 160 0.0 3.0 0.00 0.00 0.00 42 1009.5
20260505034304 58 188 1.0 5.0 0.00 0.00 0.00 42 1009.5
20260505033803 58 160 1.0 5.0 0.00 0.00 0.00 42 1009.5
20260505033257 58 200 1.0 5.0 0.00 0.00 0.00 42 1009.4
20260505032755 58 233 2.0 5.0 0.00 0.00 0.00 41 1009.4
20260505032312 58 159 0.0 2.0 0.00 0.00 0.00 41 1009.4
20260505031753 58 201 0.0 3.0 0.00 0.00 0.00 41 1009.4
20260505031252 59 209 0.0 5.0 0.00 0.00 0.00 40 1009.5
20260505030751 59 161 0.0 2.0 0.00 0.00 0.00 40 1009.5
20260505030248 59 210 1.0 5.0 0.00 0.00 0.00 40 1009.5
20260505030008 59 184 0.0 5.0 0.00 0.00 0.00 39 1009.4
20260505025807 60 253 1.0 5.0 0.00 0.00 0.00 39 1009.4
20260505025243 60 261 2.0 4.0 0.00 0.00 0.00 39 1009.5
20260505024746 60 211 2.0 5.0 0.00 0.00 0.00 39 1009.4
20260505024246 60 246 2.0 5.0 0.00 0.00 0.00 39 1009.4
20260505023746 60 133 1.0 5.0 0.00 0.00 0.00 39 1009.4
20260505023303 60 229 2.0 5.0 0.00 0.00 0.00 39 1009.4
20260505023025 60 316 0.0 5.0 0.00 0.00 0.00 39 1009.4
20260505022824 60 210 1.0 6.0 0.00 0.00 0.00 38 1009.4
20260505022258 60 216 1.0 9.0 0.00 0.00 0.00 38 1009.3
20260505021759 61 195 1.0 9.0 0.00 0.00 0.00 38 1009.4
20260505021508 60 275 1.0 9.0 0.00 0.00 0.00 38 1009.5
20260505021306 61 282 2.0 6.0 0.00 0.00 0.00 37 1009.5
20260505020807 61 83 2.0 5.0 0.00 0.00 0.00 38 1009.5
20260505020256 61 238 1.0 7.0 0.00 0.00 0.00 37 1009.5
20260505020016 60 259 0.0 7.0 0.00 0.00 0.00 37 1009.4
20260505015815 61 234 1.0 7.0 0.00 0.00 0.00 37 1009.5
20260505015303 61 234 1.0 7.0 0.00 0.00 0.00 36 1009.2
20260505014800 61 158 2.0 6.0 0.00 0.00 0.00 36 1009.4
20260505013756 62 253 1.0 2.0 0.00 0.00 0.00 35 1009.3
20260505013248 62 285 0.0 3.0 0.00 0.00 0.00 35 1009.1
20260505012744 63 188 0.0 5.0 0.00 0.00 0.00 34 1009.1
20260505011759 63 98 2.0 9.0 0.00 0.00 0.00 33 1008.9
20260505011252 63 229 2.0 9.0 0.00 0.00 0.00 33 1008.7
20260505010752 63 223 2.0 7.0 0.00 0.00 0.00 32 1008.7
20260505010304 63 93 1.0 9.0 0.00 0.00 0.00 32 1008.6
20260505005744 63 174 2.0 9.0 0.00 0.00 0.00 32 1008.5
20260505005256 63 267 2.0 6.0 0.00 0.00 0.00 31 1008.5
20260505004757 63 211 0.0 1.0 0.00 0.00 0.00 31 1008.3
20260505004250 63 211 0.0 2.0 0.00 0.00 0.00 29 1008.1
20260505003740 64 227 0.0 2.0 0.00 0.00 0.00 30 1008.0
20260505003259 64 293 0.0 2.0 0.00 0.00 0.00 29 1008.0
20260505002756 64 270 0.0 2.0 0.00 0.00 0.00 29 1007.8
20260505002310 64 232 1.0 2.0 0.00 0.00 0.00 28 1007.7
20260505001750 65 259 0.0 2.0 0.00 0.00 0.00 28 1007.7
20260505001258 65 290 0.0 3.0 0.00 0.00 0.00 27 1007.6
20260505000756 65 300 0.0 3.0 0.00 0.00 0.00 27 1007.6
20260505000311 65 246 0.0 3.0 0.00 0.00 0.00 27 1007.4
20260505000007 65 223 0.0 4.0 0.00 0.00 0.00 27 1007.4
20260504235806 66 146 1.0 4.0 0.00 0.00 0.00 27 1007.3
20260504235300 66 304 1.0 4.0 0.00 0.00 0.00 27 1007.3
20260504234759 66 250 1.0 4.0 0.00 0.00 0.00 26 1007.2
20260504234243 67 158 0.0 7.0 0.00 0.00 0.00 26 1007.1
20260504233804 67 257 2.0 7.0 0.00 0.00 0.00 25 1007.0
20260504233257 67 204 0.0 6.0 0.00 0.00 0.00 25 1007.1
20260504233018 67 253 1.0 6.0 0.00 0.00 0.00 25 1007.1
20260504232818 68 243 2.0 6.0 0.00 0.00 0.00 24 1007.0
20260504232253 68 269 2.0 6.0 0.00 0.00 0.00 24 1006.8
20260504231753 68 211 1.0 3.0 0.00 0.00 0.00 23 1006.9
20260504231244 68 271 1.0 9.0 0.00 0.00 0.00 24 1006.7
20260504230805 69 139 2.0 9.0 0.00 0.00 0.00 24 1006.7
20260504230255 69 236 3.0 10.0 0.00 0.00 0.00 22 1006.6
20260504225754 69 214 3.0 9.0 0.00 0.00 0.00 22 1006.6
20260504225251 69 243 2.0 8.0 0.00 0.00 0.00 21 1006.5
20260504224749 70 214 3.0 8.0 0.00 0.00 0.00 21 1006.4
20260504224247 70 108 2.0 9.0 0.00 0.00 0.00 21 1006.3
20260504223808 70 359 4.0 9.0 0.00 0.00 0.00 21 1006.3
20260504223324 70 184 2.0 8.0 0.00 0.00 0.00 21 1006.1
20260504222756 70 285 2.0 10.0 0.00 0.00 0.00 20 1006.3
20260504222251 70 318 3.0 12.0 0.00 0.00 0.00 20 1006.2
20260504221751 71 121 4.0 12.0 0.00 0.00 0.00 20 1006.2
20260504221249 71 44 2.0 12.0 0.00 0.00 0.00 20 1006.3
20260504220750 72 293 1.0 7.0 0.00 0.00 0.00 20 1006.3
20260504220246 71 295 3.0 8.0 0.00 0.00 0.00 20 1006.4
20260504215745 72 262 4.0 8.0 0.00 0.00 0.00 19 1006.3
20260504215244 72 314 2.0 8.0 0.00 0.00 0.00 19 1006.4
20260504214745 71 236 3.0 11.0 0.00 0.00 0.00 20 1006.3
20260504214503 71 32 3.0 11.0 0.00 0.00 0.00 20 1006.4
20260504214302 71 267 3.0 11.0 0.00 0.00 0.00 20 1006.4
20260504213802 71 275 4.0 10.0 0.00 0.00 0.00 19 1006.3
20260504213257 72 55 3.0 8.0 0.00 0.00 0.00 19 1006.2
20260504213013 71 144 2.0 13.0 0.00 0.00 0.00 20 1006.4
20260504212811 71 150 4.0 13.0 0.00 0.00 0.00 19 1006.2
20260504212248 72 279 3.0 15.0 0.00 0.00 0.00 20 1006.3
20260504211748 71 310 4.0 15.0 0.00 0.00 0.00 19 1006.3
20260504211506 71 264 5.0 15.0 0.00 0.00 0.00 19 1006.4
20260504211305 72 219 4.0 11.0 0.00 0.00 0.00 19 1006.2
20260504210745 72 168 5.0 13.0 0.00 0.00 0.00 20 1006.3
20260504210325 71 249 3.0 13.0 0.00 0.00 0.00 20 1006.2
20260504210002 70 264 4.0 11.0 0.00 0.00 0.00 20 1006.3
20260504205802 71 265 2.0 11.0 0.00 0.00 0.00 20 1006.3
20260504205317 71 352 5.0 11.0 0.00 0.00 0.00 19 1006.2
20260504204752 71 69 3.0 12.0 0.00 0.00 0.00 19 1006.2
20260504204249 72 257 5.0 13.0 0.00 0.00 0.00 20 1006.2
20260504203809 72 312 5.0 13.0 0.00 0.00 0.00 18 1006.2
20260504203246 72 143 4.0 10.0 0.00 0.00 0.00 20 1006.3
20260504202746 71 345 2.0 9.0 0.00 0.00 0.00 21 1006.2
20260504202243 71 192 4.0 15.0 0.00 0.00 0.00 19 1006.3
20260504201807 71 243 3.0 15.0 0.00 0.00 0.00 19 1006.3
20260504201244 72 255 4.0 11.0 0.00 0.00 0.00 18 1006.4
20260504200804 72 107 3.0 7.0 0.00 0.00 0.00 20 1006.4
20260504200258 72 315 2.0 9.0 0.00 0.00 0.00 19 1006.3
20260504195756 72 238 3.0 9.0 0.00 0.00 0.00 21 1006.4
20260504195252 72 124 3.0 8.0 0.00 0.00 0.00 19 1006.2
20260504194750 72 253 3.0 13.0 0.00 0.00 0.00 20 1006.4
20260504194248 72 259 5.0 13.0 0.00 0.00 0.00 18 1006.3
20260504193748 72 114 4.0 12.0 0.00 0.00 0.00 18 1006.2
20260504193246 72 270 5.0 12.0 0.00 0.00 0.00 21 1006.4
20260504192745 72 279 5.0 12.0 0.00 0.00 0.00 18 1006.3
20260504192304 72 1 3.0 11.0 0.00 0.00 0.00 18 1006.3
20260504191743 72 218 3.0 18.0 0.00 0.00 0.00 19 1006.3
20260504191257 72 297 4.0 18.0 0.00 0.00 0.00 18 1006.3
20260504190756 72 230 4.0 12.0 0.00 0.00 0.00 19 1006.5
20260504190248 72 274 3.0 18.0 0.00 0.00 0.00 18 1006.5
20260504185748 72 155 8.0 18.0 0.00 0.00 0.00 17 1006.5
20260504185244 72 84 4.0 18.0 0.00 0.00 0.00 18 1006.3
20260504184745 72 243 4.0 14.0 0.00 0.00 0.00 17 1006.5
20260504184243 72 231 2.0 14.0 0.00 0.00 0.00 18 1006.4
20260504183754 72 351 3.0 11.0 0.00 0.00 0.00 18 1006.5
20260504183312 71 297 4.0 11.0 0.00 0.00 0.00 18 1006.6
20260504183013 71 226 3.0 12.0 0.00 0.00 0.00 19 1006.7
20260504182811 71 274 3.0 12.0 0.00 0.00 0.00 18 1006.5
20260504182248 71 144 2.0 14.0 0.00 0.00 0.00 19 1006.6
20260504181804 71 271 6.0 14.0 0.00 0.00 0.00 18 1006.9
20260504181257 71 335 5.0 15.0 0.00 0.00 0.00 18 1006.4
20260504180757 71 286 6.0 15.0 0.00 0.00 0.00 18 1006.6
20260504180252 70 273 2.0 12.0 0.00 0.00 0.00 20 1006.9
20260504175754 70 96 5.0 12.0 0.00 0.00 0.00 17 1006.8
20260504175311 70 244 5.0 14.0 0.00 0.00 0.00 17 1006.7
20260504174752 70 240 4.0 14.0 0.00 0.00 0.00 17 1006.9
20260504174250 70 244 4.0 17.0 0.00 0.00 0.00 17 1006.8
20260504173748 70 278 5.0 17.0 0.00 0.00 0.00 18 1006.9
20260504173246 69 235 3.0 13.0 0.00 0.00 0.00 18 1006.9
20260504172747 69 231 5.0 12.0 0.00 0.00 0.00 18 1007.0
20260504172320 69 102 5.0 12.0 0.00 0.00 0.00 19 1007.0
20260504171758 69 196 5.0 12.0 0.00 0.00 0.00 20 1007.2
20260504171254 69 224 4.0 10.0 0.00 0.00 0.00 19 1007.4
20260504170755 69 286 4.0 17.0 0.00 0.00 0.00 21 1007.2
20260504170253 68 240 6.0 17.0 0.00 0.00 0.00 20 1007.4
20260504160243 66 158 4.0 14.0 0.00 0.00 0.00 22 1007.7